Location: Newark
(42.9277°N, 71.8621°W)
Time: 19:21:26
(UTC+00:00)

Transit 4A - Pass Details

Date: 14 May 2021
Orbit: 872 x 973 km, 66.8° (Epoch: 15 June)

Event Time Altitude Azimuth Distance (km) Brightness Sun altitude
Rises 08:09:54 0° 324° (NW) 3,485 11.0 -12.3°
Reaches altitude 10° 08:12:28 10° 319° (NW) 2,535 10.2 -11.9°
Maximum altitude 08:18:03 49° 247° (WSW) 1,113 8.0 -11.2°
Drops below altitude 10° 08:23:37 10° 173° (S) 2,514 9.9 -10.4°
Sets 08:26:09 0° 168° (SSE) 3,453 10.6 -10.0°
